Find SONATE-2

NORAD ID: 59112 Int'l Des: 2024-043 Owner: WURZ Country: D operational
LEOCIRCULARRETROGRADE

現在のビュー

3D地球を読み込み中...

SONATE-2について

説明を読み込み中...

次回通過

Passes for default location (London). Set your location on the main map for personalized predictions.

高度履歴

Loading altitude history...

軌道要素

1 59112U 24043Q 26149.38395000 .00045786 00000-0 62823-3 0 9995
2 59112 97.5509 298.6503 0006031 263.0916 96.9652 15.57197917124966
Epoch: May 29, 2026 • Age: 28 hours

現在のステータス

高度 399.7 km
速度 7.67 km/s
衛星直下点 14.52°N, 145.69°W
打ち上げ日 Mar 4, 2024
運用期間 2.2 years
タイプ other

技術仕様

分類 Payload
質量 12.00 kg
乾燥質量 12.00 kg
総質量 12.00 kg
長さ 0.30 m
直径 0.10 m
スパン 0.60 m
形状 Box + 2 pan
製造者 WURZ
バスタイプ Cubesat 6U
フェーズステータス In Orbit
所有者/国 WURZ/D

Most Searched